0 HST 1 20580U 90037B 26119.10719019 .00006745 00000-0 21661-3 0 9992 2 20580 28.4752 55.8662 0001712 325.4254 34.6231 15.30194557781042 0 ISS (ZARYA) 1 25544U 98067A 26119.16770407 .00006851 00000-0 13230-3 0 9993 2 25544 51.6320 182.7324 0007096 3.0267 357.0763 15.49015163564153 0 CXO 1 25867U 99040B 26121.77434247 .00000574 00000-0 00000+0 0 9995 2 25867 55.4326 117.9802 7910128 310.5568 359.9255 0.37807064 17145